Time,TemperatureF,DewpointF,PressureIn,WindDirection,WindDirectionDegrees,WindSpeedMPH,WindSpeedGustMPH,Humidity,HourlyPrecipIn,Conditions,Clouds,dailyrainin,SoftwareType,DateUTC
2013-03-25 00:13:00,37.4,32.4,29.49,West,270,3.2,-999.0,82,-99.99,,,0.00,Acu-Link.com,2013-03-25 04:13:00,
2013-03-25 00:28:00,36.9,32.2,29.49,West,270,2.7,-999.0,83,-99.99,,,0.00,Acu-Link.com,2013-03-25 04:28:00,
2013-03-25 00:44:00,36.9,32.2,29.49,NNE,22,3.7,-999.0,83,-99.99,,,0.00,Acu-Link.com,2013-03-25 04:44:00,
2013-03-25 00:59:00,36.5,31.5,29.49,West,270,2.7,-999.0,82,-99.99,,,0.00,Acu-Link.com,2013-03-25 04:59:00,
2013-03-25 01:14:00,36.5,31.5,29.48,South,180,2.7,-999.0,82,-99.99,,,0.00,Acu-Link.com,2013-03-25 05:14:00,
2013-03-25 01:29:00,36.3,31.6,29.48,West,270,2.7,-999.0,83,-99.99,,,0.00,Acu-Link.com,2013-03-25 05:29:00,
2013-03-25 01:44:00,36.3,31.6,29.48,SW,225,2.2,-999.0,83,-99.99,,,0.00,Acu-Link.com,2013-03-25 05:44:00,
2013-03-25 01:59:00,36.0,31.9,29.48,SW,225,4.2,-999.0,85,-99.99,,,0.00,Acu-Link.com,2013-03-25 05:59:00,
2013-03-25 02:14:00,35.8,31.4,29.48,ENE,67,4.7,-999.0,84,-99.99,,,0.00,Acu-Link.com,2013-03-25 06:14:00,
2013-03-25 02:30:00,35.8,31.2,29.48,NW,315,2.7,-999.0,83,-99.99,,,0.00,Acu-Link.com,2013-03-25 06:30:00,
2013-03-25 02:45:00,35.6,30.4,29.49,NE,45,1.7,-999.0,81,-99.99,,,0.00,Acu-Link.com,2013-03-25 06:45:00,
2013-03-25 03:00:00,35.2,30.3,29.49,SW,225,1.7,-999.0,82,-99.99,,,0.00,Acu-Link.com,2013-03-25 07:00:00,
2013-03-25 03:15:00,34.7,29.5,29.50,West,270,2.2,-999.0,81,-99.99,,,0.00,Acu-Link.com,2013-03-25 07:15:00,
2013-03-25 03:30:00,34.2,29.0,29.50,ENE,67,3.2,-999.0,81,-99.99,,,0.00,Acu-Link.com,2013-03-25 07:30:00,
2013-03-25 03:45:00,33.8,28.6,29.49,North,0,3.7,-999.0,81,-99.99,,,0.00,Acu-Link.com,2013-03-25 07:45:00,
2013-03-25 04:00:00,33.4,27.3,29.50,West,270,2.7,-999.0,78,-99.99,,,0.00,Acu-Link.com,2013-03-25 08:00:00,
2013-03-25 04:16:00,33.1,26.4,29.50,WNW,292,3.2,-999.0,76,-99.99,,,0.00,Acu-Link.com,2013-03-25 08:16:00,
2013-03-25 05:16:00,31.8,24.5,29.52,West,270,3.7,-999.0,74,-99.99,,,0.00,Acu-Link.com,2013-03-25 09:16:00,
2013-03-25 05:32:00,31.5,25.1,29.52,NW,315,4.7,-999.0,77,-99.99,,,0.00,Acu-Link.com,2013-03-25 09:32:00,
2013-03-25 05:47:00,31.3,25.3,29.52,NNW,337,4.2,-999.0,78,-99.99,,,0.00,Acu-Link.com,2013-03-25 09:47:00,
2013-03-25 06:02:00,31.1,23.8,29.53,WNW,292,4.2,-999.0,74,-99.99,,,0.00,Acu-Link.com,2013-03-25 10:02:00,
2013-03-25 06:17:00,30.9,23.3,29.53,WNW,292,4.2,-999.0,73,-99.99,,,0.00,Acu-Link.com,2013-03-25 10:17:00,
2013-03-25 06:32:00,30.6,23.3,29.54,NNW,337,2.2,-999.0,74,-99.99,,,0.00,Acu-Link.com,2013-03-25 10:32:00,
2013-03-25 06:47:00,30.4,24.1,29.54,SW,225,2.7,-999.0,77,-99.99,,,0.00,Acu-Link.com,2013-03-25 10:47:00,
2013-03-25 07:03:00,30.2,24.2,29.55,NNW,337,2.7,-999.0,78,-99.99,,,0.00,Acu-Link.com,2013-03-25 11:03:00,
2013-03-25 07:18:00,30.0,23.4,29.55,West,270,5.8,-999.0,76,-99.99,,,0.00,Acu-Link.com,2013-03-25 11:18:00,
2013-03-25 07:33:00,29.8,23.8,29.56,WSW,247,2.7,-999.0,78,-99.99,,,0.00,Acu-Link.com,2013-03-25 11:33:00,
2013-03-25 07:48:00,28.9,25.0,29.56,NNE,22,4.2,-999.0,85,-99.99,,,0.00,Acu-Link.com,2013-03-25 11:48:00,
2013-03-25 08:04:00,28.4,26.6,29.56,West,270,3.2,-999.0,93,-99.99,,,0.00,Acu-Link.com,2013-03-25 12:04:00,
2013-03-25 08:19:00,28.2,27.0,29.57,WNW,292,2.7,-999.0,95,-99.99,,,0.00,Acu-Link.com,2013-03-25 12:19:00,
2013-03-25 08:34:00,28.2,27.2,29.57,WNW,292,4.2,-999.0,96,-99.99,,,0.00,Acu-Link.com,2013-03-25 12:34:00,
2013-03-25 08:49:00,28.9,27.1,29.57,NW,315,3.7,-999.0,93,-99.99,,,0.00,Acu-Link.com,2013-03-25 12:49:00,
2013-03-25 09:04:00,28.8,28.3,29.58,NE,45,2.2,-999.0,98,-99.99,,,0.00,Acu-Link.com,2013-03-25 13:04:00,
2013-03-25 09:20:00,29.7,27.4,29.58,NNE,22,3.2,-999.0,91,-99.99,,,0.00,Acu-Link.com,2013-03-25 13:20:00,
2013-03-25 09:35:00,29.8,26.4,29.58,WNW,292,4.7,-999.0,87,-99.99,,,0.00,Acu-Link.com,2013-03-25 13:35:00,
2013-03-25 09:50:00,30.0,26.6,29.59,West,270,3.2,-999.0,87,-99.99,,,0.00,Acu-Link.com,2013-03-25 13:50:00,
2013-03-25 10:06:00,30.7,27.3,29.61,East,90,5.8,-999.0,87,-99.99,,,0.00,Acu-Link.com,2013-03-25 14:06:00,
2013-03-25 10:21:00,30.7,27.3,29.61,ENE,67,2.7,-999.0,87,-99.99,,,0.00,Acu-Link.com,2013-03-25 14:21:00,
2013-03-25 11:06:00,31.1,27.4,29.64,NE,45,3.2,-999.0,86,-99.99,,,0.00,Acu-Link.com,2013-03-25 15:06:00,
2013-03-25 11:21:00,31.3,26.5,29.66,NNW,337,5.3,-999.0,82,-99.99,,,0.00,Acu-Link.com,2013-03-25 15:21:00,
2013-03-25 11:37:00,31.6,26.2,29.66,WSW,247,6.3,-999.0,80,-99.99,,,0.00,Acu-Link.com,2013-03-25 15:37:00,
2013-03-25 11:52:00,31.5,26.4,29.66,East,90,2.7,-999.0,81,-99.99,,,0.00,Acu-Link.com,2013-03-25 15:52:00,
2013-03-25 12:07:00,31.8,26.3,29.66,NNE,22,5.8,-999.0,80,-99.99,,,0.00,Acu-Link.com,2013-03-25 16:07:00,
2013-03-25 12:38:00,32.5,25.8,29.67,East,90,2.2,-999.0,76,-99.99,,,0.00,Acu-Link.com,2013-03-25 16:38:00,
2013-03-25 12:53:00,31.8,26.9,29.67,WNW,292,2.2,-999.0,82,-99.99,,,0.00,Acu-Link.com,2013-03-25 16:53:00,
2013-03-25 13:08:00,32.5,26.4,29.67,NW,315,2.2,-999.0,78,-99.99,,,0.00,Acu-Link.com,2013-03-25 17:08:00,
2013-03-25 13:24:00,32.2,25.8,29.67,NE,45,3.7,-999.0,77,-99.99,,,0.01,Acu-Link.com,2013-03-25 17:24:00,
2013-03-25 13:39:00,32.5,25.8,29.66,West,270,2.7,-999.0,76,-99.99,,,0.01,Acu-Link.com,2013-03-25 17:39:00,
2013-03-25 13:54:00,32.0,25.9,29.67,West,270,2.2,-999.0,78,-99.99,,,0.01,Acu-Link.com,2013-03-25 17:54:00,
2013-03-25 14:09:00,32.5,26.7,29.67,ENE,67,4.2,-999.0,79,-99.99,,,0.01,Acu-Link.com,2013-03-25 18:09:00,
2013-03-25 14:25:00,33.4,26.3,29.67,ESE,112,2.7,-999.0,75,-99.99,,,0.01,Acu-Link.com,2013-03-25 18:25:00,
2013-03-25 14:40:00,32.0,25.9,29.68,ENE,67,3.2,-999.0,78,-99.99,,,0.01,Acu-Link.com,2013-03-25 18:40:00,
2013-03-25 14:55:00,33.6,26.9,29.68,NE,45,3.7,-999.0,76,-99.99,,,0.01,Acu-Link.com,2013-03-25 18:55:00,
2013-03-25 15:26:00,34.0,26.3,29.68,NE,45,3.7,-999.0,73,-99.99,,,0.01,Acu-Link.com,2013-03-25 19:26:00,
2013-03-25 15:41:00,33.4,26.0,29.68,ENE,67,5.3,-999.0,74,-99.99,,,0.01,Acu-Link.com,2013-03-25 19:41:00,
2013-03-25 15:57:00,34.3,25.9,29.68,WNW,292,4.7,-999.0,71,-99.99,,,0.01,Acu-Link.com,2013-03-25 19:57:00,
2013-03-25 16:12:00,34.5,25.7,29.68,NNE,22,2.2,-999.0,70,-99.99,,,0.01,Acu-Link.com,2013-03-25 20:12:00,
2013-03-25 16:27:00,34.2,24.8,29.68,NNW,337,4.2,-999.0,68,-99.99,,,0.01,Acu-Link.com,2013-03-25 20:27:00,
2013-03-25 16:42:00,33.6,24.9,29.69,WNW,292,3.2,-999.0,70,-99.99,,,0.01,Acu-Link.com,2013-03-25 20:42:00,
2013-03-25 16:58:00,33.6,25.2,29.69,WSW,247,2.7,-999.0,71,-99.99,,,0.01,Acu-Link.com,2013-03-25 20:58:00,
2013-03-25 17:13:00,32.9,25.9,29.71,East,90,2.7,-999.0,75,-99.99,,,0.01,Acu-Link.com,2013-03-25 21:13:00,
2013-03-25 17:28:00,32.4,25.4,29.71,NE,45,2.2,-999.0,75,-99.99,,,0.01,Acu-Link.com,2013-03-25 21:28:00,
2013-03-25 17:43:00,31.6,25.5,29.72,South,180,4.7,-999.0,78,-99.99,,,0.01,Acu-Link.com,2013-03-25 21:43:00,
2013-03-25 17:59:00,31.6,24.3,29.72,ESE,112,5.8,-999.0,74,-99.99,,,0.01,Acu-Link.com,2013-03-25 21:59:00,
2013-03-25 18:14:00,31.8,24.2,29.73,North,0,7.3,-999.0,73,-99.99,,,0.01,Acu-Link.com,2013-03-25 22:14:00,
2013-03-25 18:29:00,31.5,24.2,29.74,North,0,9.4,-999.0,74,-99.99,,,0.01,Acu-Link.com,2013-03-25 22:29:00,
2013-03-25 18:45:00,31.3,24.3,29.74,North,0,3.2,-999.0,75,-99.99,,,0.01,Acu-Link.com,2013-03-25 22:45:00,
2013-03-25 19:00:00,30.9,23.9,29.75,SSW,202,3.7,-999.0,75,-99.99,,,0.01,Acu-Link.com,2013-03-25 23:00:00,
2013-03-25 19:15:00,30.9,24.6,29.75,West,270,5.3,-999.0,77,-99.99,,,0.01,Acu-Link.com,2013-03-25 23:15:00,
2013-03-25 19:30:00,30.4,23.8,29.76,NW,315,3.2,-999.0,76,-99.99,,,0.01,Acu-Link.com,2013-03-25 23:30:00,
2013-03-25 19:45:00,30.2,23.9,29.77,WNW,292,4.2,-999.0,77,-99.99,,,0.01,Acu-Link.com,2013-03-25 23:45:00,
2013-03-25 20:01:00,30.0,23.7,29.78,West,270,2.7,-999.0,77,-99.99,,,0.01,Acu-Link.com,2013-03-26 00:01:00,
2013-03-25 20:16:00,29.8,24.1,29.79,WNW,292,3.7,-999.0,79,-99.99,,,0.01,Acu-Link.com,2013-03-26 00:16:00,
2013-03-25 20:47:00,28.9,24.1,29.79,NNW,337,2.7,-999.0,82,-99.99,,,0.01,Acu-Link.com,2013-03-26 00:47:00,
2013-03-25 21:02:00,28.9,24.1,29.80,ENE,67,3.2,-999.0,82,-99.99,,,0.01,Acu-Link.com,2013-03-26 01:02:00,
2013-03-25 21:17:00,28.9,24.1,29.81,NNE,22,4.7,-999.0,82,-99.99,,,0.01,Acu-Link.com,2013-03-26 01:17:00,
2013-03-25 21:33:00,28.8,23.7,29.81,South,180,4.2,-999.0,81,-99.99,,,0.01,Acu-Link.com,2013-03-26 01:33:00,
2013-03-25 21:48:00,28.8,23.1,29.82,SE,135,2.2,-999.0,79,-99.99,,,0.01,Acu-Link.com,2013-03-26 01:48:00,
2013-03-25 22:03:00,28.9,22.9,29.82,WNW,292,5.3,-999.0,78,-99.99,,,0.01,Acu-Link.com,2013-03-26 02:03:00,
2013-03-25 22:19:00,28.9,22.6,29.82,East,90,5.3,-999.0,77,-99.99,,,0.01,Acu-Link.com,2013-03-26 02:19:00,
2013-03-25 22:34:00,29.1,22.8,29.82,West,270,5.8,-999.0,77,-99.99,,,0.01,Acu-Link.com,2013-03-26 02:34:00,
2013-03-25 22:49:00,28.9,22.6,29.82,NW,315,8.3,-999.0,77,-99.99,,,0.01,Acu-Link.com,2013-03-26 02:49:00,
2013-03-25 23:04:00,28.8,24.0,29.83,NNW,337,6.3,-999.0,82,-99.99,,,0.01,Acu-Link.com,2013-03-26 03:04:00,
2013-03-25 23:20:00,28.6,23.8,29.83,ENE,67,3.7,-999.0,82,-99.99,,,0.01,Acu-Link.com,2013-03-26 03:20:00,
2013-03-25 23:35:00,28.4,23.9,29.84,West,270,4.2,-999.0,83,-99.99,,,0.01,Acu-Link.com,2013-03-26 03:35:00,
2013-03-25 23:50:00,28.2,23.7,29.83,NW,315,3.2,-999.0,83,-99.99,,,0.01,Acu-Link.com,2013-03-26 03:50:00,